sat.trackr.live / text

‹ back to catalog

STARLINK-30822

NORAD 58193 · 2023-167U

PAYLOAD ACTIVE UNKNOWN

§ Identity

Operator
Country
US
Launch date
2023-10-30
Launch site
AFETR
Launch vehicle
Mass (kg)
RCS (m²)

Purposes: comms

External: N2YO · Heavens-Above · Gunter

§ Orbital elements

Epoch: 2026-09-20T21:43:35.255424Z

Period
94.10 min
Inclination
43.0015°
Eccentricity
0.0004745
Mean motion
15.30351321 rev/d
Perigee alt
471.5 km
Apogee alt
478.0 km
Semi-major
6,852.9 km
B*
1.0561e-3
RAAN
120.6759°
Arg perigee
260.6140°
Mean anomaly
99.4177°
Rev number
16,084

§ Raw data

STARLINK-308221 58193U 23167U   26263.90526916  .00031520  00000+0  10561-2 0  99972 58193  43.0015 120.6759 0004745 260.6140  99.4177 15.30351321160840

JSON: /api/v1/satellites/58193 · /tle

For live sub-satellite position, see the globe view (requires WebGL).

§ Visibility from observer

Set your observer location to see the next 7 days of passes ≥ 10°. The values pass through the URL so the page stays shareable.

No JS? Fill the form by hand. The geolocation button needs JavaScript.